This is the latest recevied weather packets stored in our database for station/object KD4UFD. If no packets are shown the sender has not sent any weather packets the latest 10 day(s).
| Time | Temp. | Humidity | Pressure | Rain* | Wind** | Luminosity | Snow |
|---|---|---|---|---|---|---|---|
| 1778206603 | 12.22° C | 82% | 1015.3 hPa | 0 mm | - | 0 W/m² | - |
| 1778206299 | 12.22° C | 83% | 1015.4 hPa | 0 mm | - | 0 W/m² | - |
| 1778205997 | 12.22° C | 84% | 1015.2 hPa | 0 mm | - | 0 W/m² | - |
| 1778205694 | 12.22° C | 85% | 1014.8 hPa | 0 mm | - | 0 W/m² | - |
| 1778205392 | 12.22° C | 86% | 1014.8 hPa | 0 mm | - | 0 W/m² | - |
| 1778205088 | 12.78° C | 86% | 1014.8 hPa | 0 mm | - | 0 W/m² | - |
| 1778204785 | 12.78° C | 86% | 1014.7 hPa | 0 mm | - | 0 W/m² | - |
| 1778204481 | 12.78° C | 85% | 1014.5 hPa | 0 mm | - | 0 W/m² | - |
| 1778204177 | 12.78° C | 80% | 1014.4 hPa | 0 mm | - | 0 W/m² | - |
| 1778203874 | 12.78° C | 79% | 1014.3 hPa | 0 mm | - | 0 W/m² | - |
| 1778203572 | 12.78° C | 79% | 1014.3 hPa | 0 mm | - | 0 W/m² | - |
| 1778203269 | 12.78° C | 80% | 1014.3 hPa | 0 mm | - | 0 W/m² | - |
| 1778202967 | 12.78° C | 82% | 1014.1 hPa | 0 mm | - | 0 W/m² | - |
| 1778202664 | 12.78° C | 83% | 1014 hPa | 0 mm | - | 0 W/m² | - |
| 1778202361 | 12.78° C | 83% | 1013.9 hPa | 0 mm | - | 0 W/m² | - |
| 1778202059 | 13.33° C | 82% | 1014.1 hPa | 0 mm | - | 0 W/m² | - |
| 1778201755 | 13.33° C | 82% | 1014 hPa | 0 mm | - | 0 W/m² | - |
| 1778201451 | 13.89° C | 81% | 1013.8 hPa | 0 mm | - | 0 W/m² | - |
| 1778201147 | 13.89° C | 80% | 1013.8 hPa | 0 mm | - | 0 W/m² | - |
| 1778200844 | 14.44° C | 78% | 1013.7 hPa | 0 mm | - | 0 W/m² | - |
| 1778200541 | 14.44° C | 77% | 1013.6 hPa | 0 mm | - | 0 W/m² | - |
| 1778200239 | 14.44° C | 79% | 1013.7 hPa | 0 mm | - | 1 W/m² | - |
| 1778199935 | 14.44° C | 80% | 1013.2 hPa | 0 mm | - | 3 W/m² | - |
| 1778199632 | 14.44° C | 81% | 1013.6 hPa | 0 mm | - | 6 W/m² | - |
| 1778199328 | 15° C | 83% | 1013.5 hPa | 0 mm | - | 9 W/m² | - |
* Rain latest hour (hover to see other rain measurements)
** Current wind speed in m/s (hover to see current wind gust speed)